This demonstration page uses our WeatherBlox Daily Observations layout. Learn more.

Left ArrowRight Arrow

40.97296, -117.73568

Hourly Observations for August 30, 2022

Temp ( °F °C ) Dew Point ( °F °C ) Humidity (%) Winds ( mph kmh ) Pressure ( in mb ) Visibility ( mi km ) Precip ( " mm )
12:56 am 00:56 Clear 79 26.1 32 0 18 18 ENE 10 17 29.92 1013 10 16 0.00 0.00
1:56 am 01:56 Clear 80 26.7 31 -0.6 17 17 ENE 12 19 29.90 1013 10 16 0.00 0.00
2:56 am 02:56 Clear 77 25 32 0 19 19 NE 13 20 29.92 1013 10 16 0.00 0.00
3:56 am 03:56 Clear 70 21.1 33 0.6 25 25 E 10 17 29.94 1014 10 16 0.00 0.00
4:56 am 04:56 Clear 62 16.7 32 0 32 32 ESE 6 9 29.97 1015 10 16 0.00 0.00
5:56 am 05:56 Clear 61 16.1 33 0.6 35 35 SSE 6 9 29.98 1015 10 16 0.00 0.00
6:56 am 06:56 Sunny 60 15.6 33 0.6 36 36 SSE 6 9 30.01 1016 10 16 0.00 0.00
7:56 am 07:56 Sunny 73 22.8 33 0.6 23 23 ENE 9 15 30.02 1017 10 16 0.00 0.00
8:56 am 08:56 Sunny 79 26.1 34 1.1 20 20 NE 7 11 30.02 1017 10 16 0.00 0.00
9:56 am 09:56 Sunny 85 29.4 34 1.1 16 16 ENE 6 9 30.03 1017 10 16 0.00 0.00
10:56 am 10:56 Sunny 89 31.7 38 3.3 17 17 SE 6 9 30.01 1016 10 16 0.00 0.00
11:56 am 11:56 Sunny 95 35 38 3.3 14 14 VRB 3 6 29.97 1015 10 16 0.00 0.00
12:56 pm 12:56 Sunny 97 36.1 35 1.7 12 12 undefined N/A 29.95 1014 10 16 0.00 0.00
1:56 pm 13:56 Sunny 98 36.7 29 -1.7 9 9 SE 13 20 29.94 1014 10 16 0.00 0.00
2:56 pm 14:56 Sunny 99 37.2 30 -1.1 9 9 SW 10 17 29.93 1014 10 16 0.00 0.00
3:56 pm 15:56 Sunny 99 37.2 28 -2.2 8 8 SW 13 20 29.92 1013 10 16 0.00 0.00
4:56 pm 16:56 Sunny 98 36.7 28 -2.2 8 8 ESE 6 9 29.93 1013 10 16 0.00 0.00
5:56 pm 17:56 Sunny 97 36.1 27 -2.8 8 8 W 10 17 29.93 1013 10 16 0.00 0.00
6:56 pm 18:56 Sunny 93 33.9 30 -1.1 11 11 W 7 11 29.93 1014 10 16 0.00 0.00
7:56 pm 19:56 Clear 82 27.8 30 -1.1 15 15 W 3 6 29.94 1014 10 16 0.00 0.00
8:56 pm 20:56 Clear 76 24.4 32 0 20 20 ENE 6 9 29.95 1014 10 16 0.00 0.00
9:56 pm 21:56 Clear 70 21.1 29 -1.7 22 22 Calm 29.95 1014 10 16 0.00 0.00
10:56 pm 22:56 Clear 65 18.3 32 0 29 29 SE 8 13 29.96 1015 10 16 0.00 0.00
11:56 pm 23:56 Clear 63 17.2 30 -1.1 29 29 ESE 7 11 29.96 1015 10 16 0.00 0.00

Powered by AerisWeather